owner,sensor,date,latitude,longitude,vertical_datum,mass_concentration_of_oxygen_in_sea_water,qcFlag 
SCCF RECON,ioos:station:SCCF:18:1,2014-04-01T00:00:00Z,26.6955,-81.8138,1.0,-9999.0,1111122 
SCCF RECON,ioos:station:SCCF:18:1,2014-04-01T01:00:00Z,26.6955,-81.8138,1.58,6.59,1111122 
SCCF RECON,ioos:station:SCCF:18:1,2014-04-01T02:00:00Z,26.6955,-81.8138,1.53,6.08,1111122 
SCCF RECON,ioos:station:SCCF:18:1,2014-04-01T03:00:00Z,26.6955,-81.8138,1.5,6.36,1111122 
SCCF RECON,ioos:station:SCCF:18:1,2014-04-01T04:00:00Z,26.6955,-81.8138,1.0,-9999.0,1111122 
SCCF RECON,ioos:station:SCCF:18:1,2014-04-01T05:00:00Z,26.6955,-81.8138,1.0,-9999.0,1111122 
SCCF RECON,ioos:station:SCCF:18:1,2014-04-01T06:00:00Z,26.6955,-81.8138,1.42,6.25,1111122 
SCCF RECON,ioos:station:SCCF:18:1,2014-04-01T07:00:00Z,26.6955,-81.8138,1.0,-9999.0,1111122 
SCCF RECON,ioos:station:SCCF:18:1,2014-04-01T08:00:00Z,26.6955,-81.8138,1.0,-9999.0,1111122 
SCCF RECON,ioos:station:SCCF:18:1,2014-04-01T09:00:00Z,26.6955,-81.8138,1.0,-9999.0,1111122 
SCCF RECON,ioos:station:SCCF:18:1,2014-04-01T10:00:00Z,26.6955,-81.8138,1.0,-9999.0,1111122 
SCCF RECON,ioos:station:SCCF:18:1,2014-04-01T11:00:00Z,26.6955,-81.8138,1.0,-9999.0,1111122 
SCCF RECON,ioos:station:SCCF:18:1,2014-04-01T12:00:00Z,26.6955,-81.8138,1.0,-9999.0,1111122 
SCCF RECON,ioos:station:SCCF:18:1,2014-04-01T13:00:00Z,26.6955,-81.8138,1.0,-9999.0,1111122 
SCCF RECON,ioos:station:SCCF:18:1,2014-04-01T14:00:00Z,26.6955,-81.8138,1.0,-9999.0,1111122 
SCCF RECON,ioos:station:SCCF:18:1,2014-04-01T15:00:00Z,26.6955,-81.8138,1.0,-9999.0,1111122 
SCCF RECON,ioos:station:SCCF:18:1,2014-04-01T16:00:00Z,26.6955,-81.8138,1.0,-9999.0,1111122 
SCCF RECON,ioos:station:SCCF:18:1,2014-04-01T17:00:00Z,26.6955,-81.8138,1.0,-9999.0,1111122 
SCCF RECON,ioos:station:SCCF:18:1,2014-04-01T18:00:00Z,26.6955,-81.8138,1.0,-9999.0,1111122 
SCCF RECON,ioos:station:SCCF:18:1,2014-04-01T19:00:00Z,26.6955,-81.8138,1.64,6.89,1111122 
SCCF RECON,ioos:station:SCCF:18:1,2014-04-01T20:00:00Z,26.6955,-81.8138,1.68,7.29,1111122 
SCCF RECON,ioos:station:SCCF:18:1,2014-04-01T21:00:00Z,26.6955,-81.8138,1.0,-9999.0,1111122 
SCCF RECON,ioos:station:SCCF:18:1,2014-04-01T22:00:00Z,26.6955,-81.8138,1.0,-9999.0,1111122 
SCCF RECON,ioos:station:SCCF:18:1,2014-04-01T23:00:00Z,26.6955,-81.8138,1.0,-9999.0,1111122 
SCCF RECON,ioos:station:SCCF:18:1,2014-04-02T00:00:00Z,26.6955,-81.8138,1.0,-9999.0,1111122 
SCCF RECON,ioos:station:SCCF:18:1,2014-04-02T01:00:00Z,26.6955,-81.8138,1.0,-9999.0,1111122 
SCCF RECON,ioos:station:SCCF:18:1,2014-04-02T02:00:00Z,26.6955,-81.8138,1.0,-9999.0,1111122 
SCCF RECON,ioos:station:SCCF:18:1,2014-04-02T03:00:00Z,26.6955,-81.8138,1.66,6.87,1111122 
SCCF RECON,ioos:station:SCCF:18:1,2014-04-02T04:00:00Z,26.6955,-81.8138,1.61,6.67,1111122 
SCCF RECON,ioos:station:SCCF:18:1,2014-04-02T05:00:00Z,26.6955,-81.8138,1.553,6.57,1111122 
SCCF RECON,ioos:station:SCCF:18:1,2014-04-02T06:00:00Z,26.6955,-81.8138,1.0,-9999.0,1111122 
SCCF RECON,ioos:station:SCCF:18:1,2014-04-02T07:00:00Z,26.6955,-81.8138,1.0,-9999.0,1111122 
SCCF RECON,ioos:station:SCCF:18:1,2014-04-02T08:00:00Z,26.6955,-81.8138,1.0,-9999.0,1111122 
SCCF RECON,ioos:station:SCCF:18:1,2014-04-02T09:00:00Z,26.6955,-81.8138,1.0,-9999.0,1111122 
SCCF RECON,ioos:station:SCCF:18:1,2014-04-02T10:00:00Z,26.6955,-81.8138,1.0,-9999.0,1111122 
SCCF RECON,ioos:station:SCCF:18:1,2014-04-02T11:00:00Z,26.6955,-81.8138,1.0,-9999.0,1111122 
SCCF RECON,ioos:station:SCCF:18:1,2014-04-02T12:00:00Z,26.6955,-81.8138,1.0,-9999.0,1111122 
SCCF RECON,ioos:station:SCCF:18:1,2014-04-02T13:00:00Z,26.6955,-81.8138,1.0,-9999.0,1111122 
SCCF RECON,ioos:station:SCCF:18:1,2014-04-02T14:00:00Z,26.6955,-81.8138,1.0,-9999.0,1111122 
SCCF RECON,ioos:station:SCCF:18:1,2014-04-02T15:00:00Z,26.6955,-81.8138,1.0,-9999.0,1111122 
SCCF RECON,ioos:station:SCCF:18:1,2014-04-02T16:00:00Z,26.6955,-81.8138,1.0,-9999.0,1111122 
SCCF RECON,ioos:station:SCCF:18:1,2014-04-02T17:00:00Z,26.6955,-81.8138,1.0,-9999.0,1111122 
SCCF RECON,ioos:station:SCCF:18:1,2014-04-02T18:00:00Z,26.6955,-81.8138,1.0,-9999.0,1111122 
SCCF RECON,ioos:station:SCCF:18:1,2014-04-02T19:00:00Z,26.6955,-81.8138,1.0,-9999.0,1111122 
SCCF RECON,ioos:station:SCCF:18:1,2014-04-02T20:00:00Z,26.6955,-81.8138,1.0,-9999.0,1111122 
SCCF RECON,ioos:station:SCCF:18:1,2014-04-02T21:00:00Z,26.6955,-81.8138,1.0,-9999.0,1111122 
SCCF RECON,ioos:station:SCCF:18:1,2014-04-02T22:00:00Z,26.6955,-81.8138,1.0,-9999.0,1111122 
SCCF RECON,ioos:station:SCCF:18:1,2014-04-02T23:00:00Z,26.6955,-81.8138,1.0,-9999.0,1111122 
SCCF RECON,ioos:station:SCCF:18:1,2014-04-03T00:00:00Z,26.6955,-81.8138,1.0,-9999.0,1111122 
SCCF RECON,ioos:station:SCCF:18:1,2014-04-03T01:00:00Z,26.6955,-81.8138,1.0,-9999.0,1111122 
SCCF RECON,ioos:station:SCCF:18:1,2014-04-03T02:00:00Z,26.6955,-81.8138,1.0,-9999.0,1111122 
SCCF RECON,ioos:station:SCCF:18:1,2014-04-03T03:00:00Z,26.6955,-81.8138,1.0,-9999.0,1111122 
SCCF RECON,ioos:station:SCCF:18:1,2014-04-03T04:00:00Z,26.6955,-81.8138,1.0,-9999.0,1111122 
SCCF RECON,ioos:station:SCCF:18:1,2014-04-03T05:00:00Z,26.6955,-81.8138,1.0,-9999.0,1111122 
SCCF RECON,ioos:station:SCCF:18:1,2014-04-03T06:00:00Z,26.6955,-81.8138,1.0,-9999.0,1111122 
SCCF RECON,ioos:station:SCCF:18:1,2014-04-03T07:00:00Z,26.6955,-81.8138,1.0,-9999.0,1111122 
SCCF RECON,ioos:station:SCCF:18:1,2014-04-03T08:00:00Z,26.6955,-81.8138,1.0,-9999.0,1111122 
SCCF RECON,ioos:station:SCCF:18:1,2014-04-03T09:00:00Z,26.6955,-81.8138,1.0,-9999.0,1111122 
SCCF RECON,ioos:station:SCCF:18:1,2014-04-03T10:00:00Z,26.6955,-81.8138,1.0,-9999.0,1111122 
SCCF RECON,ioos:station:SCCF:18:1,2014-04-03T11:00:00Z,26.6955,-81.8138,1.0,-9999.0,1111122 
SCCF RECON,ioos:station:SCCF:18:1,2014-04-03T12:00:00Z,26.6955,-81.8138,1.0,-9999.0,1111122 
SCCF RECON,ioos:station:SCCF:18:1,2014-04-03T13:00:00Z,26.6955,-81.8138,1.0,-9999.0,1111122 
SCCF RECON,ioos:station:SCCF:18:1,2014-04-03T14:00:00Z,26.6955,-81.8138,1.0,-9999.0,1111122 
SCCF RECON,ioos:station:SCCF:18:1,2014-04-03T15:00:00Z,26.6955,-81.8138,1.0,-9999.0,1111122 
SCCF RECON,ioos:station:SCCF:18:1,2014-04-03T16:00:00Z,26.6955,-81.8138,1.0,-9999.0,1111122 
SCCF RECON,ioos:station:SCCF:18:1,2014-04-03T17:00:00Z,26.6955,-81.8138,1.0,-9999.0,1111122 
SCCF RECON,ioos:station:SCCF:18:1,2014-04-03T19:00:00Z,26.6955,-81.8138,1.132,8.16,1111122 
SCCF RECON,ioos:station:SCCF:18:1,2014-04-03T20:00:00Z,26.6955,-81.8138,1.358,7.92,1111122 
SCCF RECON,ioos:station:SCCF:18:1,2014-04-03T21:00:00Z,26.6955,-81.8138,1.5,7.26,1111122 
SCCF RECON,ioos:station:SCCF:18:1,2014-04-03T22:00:00Z,26.6955,-81.8138,1.59,6.79,1111122 
SCCF RECON,ioos:station:SCCF:18:1,2014-04-03T23:00:00Z,26.6955,-81.8138,1.675,6.65,1111122 
SCCF RECON,ioos:station:SCCF:18:1,2014-04-04T00:00:00Z,26.6955,-81.8138,1.73,6.68,1111122 
SCCF RECON,ioos:station:SCCF:18:1,2014-04-04T01:00:00Z,26.6955,-81.8138,1.75,7.91,1111122 
SCCF RECON,ioos:station:SCCF:18:1,2014-04-04T02:00:00Z,26.6955,-81.8138,1.73,7.78,1111122 
SCCF RECON,ioos:station:SCCF:18:1,2014-04-04T03:00:00Z,26.6955,-81.8138,1.69,7.1,1111122 
SCCF RECON,ioos:station:SCCF:18:1,2014-04-04T04:00:00Z,26.6955,-81.8138,1.67,7.44,1111122 
SCCF RECON,ioos:station:SCCF:18:1,2014-04-04T05:00:00Z,26.6955,-81.8138,1.62,7.36,1111122 
SCCF RECON,ioos:station:SCCF:18:1,2014-04-04T06:00:00Z,26.6955,-81.8138,1.56,7.23,1111122 
SCCF RECON,ioos:station:SCCF:18:1,2014-04-04T07:00:00Z,26.6955,-81.8138,1.51,7.09,1111122 
SCCF RECON,ioos:station:SCCF:18:1,2014-04-04T08:00:00Z,26.6955,-81.8138,1.47,6.87,1111122 
SCCF RECON,ioos:station:SCCF:18:1,2014-04-04T09:00:00Z,26.6955,-81.8138,1.42,6.61,1111122 
SCCF RECON,ioos:station:SCCF:18:1,2014-04-04T10:00:00Z,26.6955,-81.8138,1.43,6.49,1111122 
SCCF RECON,ioos:station:SCCF:18:1,2014-04-04T11:00:00Z,26.6955,-81.8138,1.47,6.46,1111122 
SCCF RECON,ioos:station:SCCF:18:1,2014-04-04T12:00:00Z,26.6955,-81.8138,1.51,6.43,1111122 
SCCF RECON,ioos:station:SCCF:18:1,2014-04-04T13:00:00Z,26.6955,-81.8138,1.54,6.39,1111122 
SCCF RECON,ioos:station:SCCF:18:1,2014-04-04T14:00:00Z,26.6955,-81.8138,1.56,6.56,1111122 
SCCF RECON,ioos:station:SCCF:18:1,2014-04-04T15:00:00Z,26.6955,-81.8138,1.59,6.89,1111122 
SCCF RECON,ioos:station:SCCF:18:1,2014-04-04T16:00:00Z,26.6955,-81.8138,1.6,7.33,1111122 
SCCF RECON,ioos:station:SCCF:18:1,2014-04-04T17:00:00Z,26.6955,-81.8138,1.6,7.75,1111122 
SCCF RECON,ioos:station:SCCF:18:1,2014-04-04T18:00:00Z,26.6955,-81.8138,1.61,7.8,1111122 
SCCF RECON,ioos:station:SCCF:18:1,2014-04-04T19:00:00Z,26.6955,-81.8138,1.62,7.85,1111122 
SCCF RECON,ioos:station:SCCF:18:1,2014-04-04T20:00:00Z,26.6955,-81.8138,1.65,6.95,1111122 
SCCF RECON,ioos:station:SCCF:18:1,2014-04-04T21:00:00Z,26.6955,-81.8138,1.7,6.79,1111122 
SCCF RECON,ioos:station:SCCF:18:1,2014-04-04T22:00:00Z,26.6955,-81.8138,1.73,6.58,1111122 
SCCF RECON,ioos:station:SCCF:18:1,2014-04-04T23:00:00Z,26.6955,-81.8138,1.76,6.47,1111122 
SCCF RECON,ioos:station:SCCF:18:1,2014-04-05T00:00:00Z,26.6955,-81.8138,1.8,6.46,1111122 
SCCF RECON,ioos:station:SCCF:18:1,2014-04-05T01:00:00Z,26.6955,-81.8138,1.8,7.29,1111122 
SCCF RECON,ioos:station:SCCF:18:1,2014-04-05T02:00:00Z,26.6955,-81.8138,1.78,7.28,1111122 
SCCF RECON,ioos:station:SCCF:18:1,2014-04-05T03:00:00Z,26.6955,-81.8138,1.74,7.7,1111122 
SCCF RECON,ioos:station:SCCF:18:1,2014-04-05T04:00:00Z,26.6955,-81.8138,1.69,7.28,1111122 
SCCF RECON,ioos:station:SCCF:18:1,2014-04-05T05:00:00Z,26.6955,-81.8138,1.67,7.31,1111122 
SCCF RECON,ioos:station:SCCF:18:1,2014-04-05T06:00:00Z,26.6955,-81.8138,1.63,6.96,1111122 
SCCF RECON,ioos:station:SCCF:18:1,2014-04-05T07:00:00Z,26.6955,-81.8138,1.58,6.81,1111122 
SCCF RECON,ioos:station:SCCF:18:1,2014-04-05T08:00:00Z,26.6955,-81.8138,1.52,6.65,1111122 
SCCF RECON,ioos:station:SCCF:18:1,2014-04-05T09:00:00Z,26.6955,-81.8138,1.47,6.39,1111122 
SCCF RECON,ioos:station:SCCF:18:1,2014-04-05T10:00:00Z,26.6955,-81.8138,1.41,6.3,1111122 
SCCF RECON,ioos:station:SCCF:18:1,2014-04-05T11:00:00Z,26.6955,-81.8138,1.42,6.13,1111122 
SCCF RECON,ioos:station:SCCF:18:1,2014-04-05T12:00:00Z,26.6955,-81.8138,1.45,5.97,1111122 
SCCF RECON,ioos:station:SCCF:18:1,2014-04-05T13:00:00Z,26.6955,-81.8138,1.51,6.24,1111122 
SCCF RECON,ioos:station:SCCF:18:1,2014-04-05T14:00:00Z,26.6955,-81.8138,1.547,6.27,1111122 
SCCF RECON,ioos:station:SCCF:18:1,2014-04-05T15:00:00Z,26.6955,-81.8138,1.57,6.48,1111122 
SCCF RECON,ioos:station:SCCF:18:1,2014-04-05T16:00:00Z,26.6955,-81.8138,1.6,6.74,1111122 
SCCF RECON,ioos:station:SCCF:18:1,2014-04-05T17:00:00Z,26.6955,-81.8138,1.6,6.85,1111122 
SCCF RECON,ioos:station:SCCF:18:1,2014-04-05T18:00:00Z,26.6955,-81.8138,1.55,6.5,1111122 
SCCF RECON,ioos:station:SCCF:18:1,2014-04-05T19:00:00Z,26.6955,-81.8138,1.58,7.21,1111122 
SCCF RECON,ioos:station:SCCF:18:1,2014-04-05T20:00:00Z,26.6955,-81.8138,1.623,6.99,1111122 
SCCF RECON,ioos:station:SCCF:18:1,2014-04-05T21:00:00Z,26.6955,-81.8138,1.63,6.86,1111122 
SCCF RECON,ioos:station:SCCF:18:1,2014-04-05T22:00:00Z,26.6955,-81.8138,1.67,6.94,1111122 
SCCF RECON,ioos:station:SCCF:18:1,2014-04-05T23:00:00Z,26.6955,-81.8138,1.7,6.49,1111122 
SCCF RECON,ioos:station:SCCF:18:1,2014-04-06T00:00:00Z,26.6955,-81.8138,1.73,6.28,1111122 
SCCF RECON,ioos:station:SCCF:18:1,2014-04-06T01:00:00Z,26.6955,-81.8138,1.76,6.54,1111122 
SCCF RECON,ioos:station:SCCF:18:1,2014-04-06T02:00:00Z,26.6955,-81.8138,1.74,6.76,1111122 
SCCF RECON,ioos:station:SCCF:18:1,2014-04-06T03:00:00Z,26.6955,-81.8138,1.714,6.93,1111122 
SCCF RECON,ioos:station:SCCF:18:1,2014-04-06T04:00:00Z,26.6955,-81.8138,1.68,6.87,1111122 
SCCF RECON,ioos:station:SCCF:18:1,2014-04-06T05:00:00Z,26.6955,-81.8138,1.66,6.59,1111122 
SCCF RECON,ioos:station:SCCF:18:1,2014-04-06T06:00:00Z,26.6955,-81.8138,1.63,6.62,1111122 
SCCF RECON,ioos:station:SCCF:18:1,2014-04-06T07:00:00Z,26.6955,-81.8138,1.58,6.53,1111122 
SCCF RECON,ioos:station:SCCF:18:1,2014-04-06T08:00:00Z,26.6955,-81.8138,1.52,6.41,1111122 
SCCF RECON,ioos:station:SCCF:18:1,2014-04-06T09:00:00Z,26.6955,-81.8138,1.48,6.22,1111122 
SCCF RECON,ioos:station:SCCF:18:1,2014-04-06T10:00:00Z,26.6955,-81.8138,1.44,5.94,1111122 
SCCF RECON,ioos:station:SCCF:18:1,2014-04-06T11:00:00Z,26.6955,-81.8138,1.36,6.18,1111122 
SCCF RECON,ioos:station:SCCF:18:1,2014-04-06T12:00:00Z,26.6955,-81.8138,1.35,5.82,1111122 
SCCF RECON,ioos:station:SCCF:18:1,2014-04-06T13:00:00Z,26.6955,-81.8138,1.39,5.82,1111122 
SCCF RECON,ioos:station:SCCF:18:1,2014-04-06T14:00:00Z,26.6955,-81.8138,1.43,5.79,1111122 
SCCF RECON,ioos:station:SCCF:18:1,2014-04-06T15:00:00Z,26.6955,-81.8138,1.45,5.65,1111122 
SCCF RECON,ioos:station:SCCF:18:1,2014-04-06T16:00:00Z,26.6955,-81.8138,1.507,6.08,1111122 
SCCF RECON,ioos:station:SCCF:18:1,2014-04-06T17:00:00Z,26.6955,-81.8138,1.54,6.05,1111122 
SCCF RECON,ioos:station:SCCF:18:1,2014-04-06T18:00:00Z,26.6955,-81.8138,1.58,6.0,1111122 
SCCF RECON,ioos:station:SCCF:18:1,2014-04-06T19:00:00Z,26.6955,-81.8138,1.62,6.2,1111122 
SCCF RECON,ioos:station:SCCF:18:1,2014-04-06T20:00:00Z,26.6955,-81.8138,1.63,5.99,1111122 
SCCF RECON,ioos:station:SCCF:18:1,2014-04-06T21:00:00Z,26.6955,-81.8138,1.65,6.03,1111122 
SCCF RECON,ioos:station:SCCF:18:1,2014-04-06T22:00:00Z,26.6955,-81.8138,1.68,6.19,1111122 
SCCF RECON,ioos:station:SCCF:18:1,2014-04-06T23:00:00Z,26.6955,-81.8138,1.7,6.16,1111122 
SCCF RECON,ioos:station:SCCF:18:1,2014-04-07T00:00:00Z,26.6955,-81.8138,1.71,5.83,1111122 
SCCF RECON,ioos:station:SCCF:18:1,2014-04-07T01:00:00Z,26.6955,-81.8138,1.74,5.96,1111122 
SCCF RECON,ioos:station:SCCF:18:1,2014-04-07T02:00:00Z,26.6955,-81.8138,1.75,6.08,1111122 
SCCF RECON,ioos:station:SCCF:18:1,2014-04-07T03:00:00Z,26.6955,-81.8138,1.74,6.31,1111122 
SCCF RECON,ioos:station:SCCF:18:1,2014-04-07T04:00:00Z,26.6955,-81.8138,1.72,6.32,1111122 
SCCF RECON,ioos:station:SCCF:18:1,2014-04-07T05:00:00Z,26.6955,-81.8138,1.7,6.38,1111122 
SCCF RECON,ioos:station:SCCF:18:1,2014-04-07T06:00:00Z,26.6955,-81.8138,1.67,6.17,1111122 
SCCF RECON,ioos:station:SCCF:18:1,2014-04-07T07:00:00Z,26.6955,-81.8138,1.61,6.12,1111122 
SCCF RECON,ioos:station:SCCF:18:1,2014-04-07T08:00:00Z,26.6955,-81.8138,1.58,5.93,1111122 
SCCF RECON,ioos:station:SCCF:18:1,2014-04-07T09:00:00Z,26.6955,-81.8138,1.53,5.87,1111122 
SCCF RECON,ioos:station:SCCF:18:1,2014-04-07T10:00:00Z,26.6955,-81.8138,1.48,5.86,1111122 
SCCF RECON,ioos:station:SCCF:18:1,2014-04-07T11:00:00Z,26.6955,-81.8138,1.44,5.8,1111122 
SCCF RECON,ioos:station:SCCF:18:1,2014-04-07T12:00:00Z,26.6955,-81.8138,1.4,5.66,1111122 
SCCF RECON,ioos:station:SCCF:18:1,2014-04-07T13:00:00Z,26.6955,-81.8138,1.41,5.48,1111122 
SCCF RECON,ioos:station:SCCF:18:1,2014-04-07T14:00:00Z,26.6955,-81.8138,1.46,5.71,1111122 
SCCF RECON,ioos:station:SCCF:18:1,2014-04-07T15:00:00Z,26.6955,-81.8138,1.47,5.59,1111122 
SCCF RECON,ioos:station:SCCF:18:1,2014-04-07T16:00:00Z,26.6955,-81.8138,1.52,5.91,1111122 
SCCF RECON,ioos:station:SCCF:18:1,2014-04-07T17:00:00Z,26.6955,-81.8138,1.59,6.07,1111122 
SCCF RECON,ioos:station:SCCF:18:1,2014-04-07T18:00:00Z,26.6955,-81.8138,1.64,5.96,1111122 
SCCF RECON,ioos:station:SCCF:18:1,2014-04-07T19:00:00Z,26.6955,-81.8138,1.69,6.09,1111122 
SCCF RECON,ioos:station:SCCF:18:1,2014-04-07T20:00:00Z,26.6955,-81.8138,1.72,6.15,1111122 
SCCF RECON,ioos:station:SCCF:18:1,2014-04-07T21:00:00Z,26.6955,-81.8138,1.75,6.04,1111122 
SCCF RECON,ioos:station:SCCF:18:1,2014-04-07T22:00:00Z,26.6955,-81.8138,1.76,6.27,1111122 
SCCF RECON,ioos:station:SCCF:18:1,2014-04-07T23:00:00Z,26.6955,-81.8138,1.77,6.24,1111122 
SCCF RECON,ioos:station:SCCF:18:1,2014-04-08T00:00:00Z,26.6955,-81.8138,1.76,6.24,1111122 
SCCF RECON,ioos:station:SCCF:18:1,2014-04-08T01:00:00Z,26.6955,-81.8138,1.75,5.83,1111122 
SCCF RECON,ioos:station:SCCF:18:1,2014-04-08T02:00:00Z,26.6955,-81.8138,1.75,6.1,1111122 
SCCF RECON,ioos:station:SCCF:18:1,2014-04-08T03:00:00Z,26.6955,-81.8138,1.77,6.68,1111122 
SCCF RECON,ioos:station:SCCF:18:1,2014-04-08T04:00:00Z,26.6955,-81.8138,1.77,6.53,1111122 
SCCF RECON,ioos:station:SCCF:18:1,2014-04-08T05:00:00Z,26.6955,-81.8138,1.73,6.39,1111122 
SCCF RECON,ioos:station:SCCF:18:1,2014-04-08T06:00:00Z,26.6955,-81.8138,1.73,6.02,1111122 
SCCF RECON,ioos:station:SCCF:18:1,2014-04-08T07:00:00Z,26.6955,-81.8138,1.66,5.95,1111122 
SCCF RECON,ioos:station:SCCF:18:1,2014-04-08T08:00:00Z,26.6955,-81.8138,1.61,5.8,1111122 
SCCF RECON,ioos:station:SCCF:18:1,2014-04-08T09:00:00Z,26.6955,-81.8138,1.558,5.71,1111122 
SCCF RECON,ioos:station:SCCF:18:1,2014-04-08T10:00:00Z,26.6955,-81.8138,1.51,5.46,1111122 
SCCF RECON,ioos:station:SCCF:18:1,2014-04-08T11:00:00Z,26.6955,-81.8138,1.47,5.52,1111122 
SCCF RECON,ioos:station:SCCF:18:1,2014-04-08T12:00:00Z,26.6955,-81.8138,1.44,5.54,1111122 
SCCF RECON,ioos:station:SCCF:18:1,2014-04-08T13:00:00Z,26.6955,-81.8138,1.45,5.5,1111122 
SCCF RECON,ioos:station:SCCF:18:1,2014-04-08T14:00:00Z,26.6955,-81.8138,1.45,5.65,1111122 
SCCF RECON,ioos:station:SCCF:18:1,2014-04-08T15:00:00Z,26.6955,-81.8138,1.49,5.66,1111122 
SCCF RECON,ioos:station:SCCF:18:1,2014-04-08T16:00:00Z,26.6955,-81.8138,1.54,5.78,1111122 
SCCF RECON,ioos:station:SCCF:18:1,2014-04-08T17:00:00Z,26.6955,-81.8138,1.61,5.85,1111122 
SCCF RECON,ioos:station:SCCF:18:1,2014-04-08T18:00:00Z,26.6955,-81.8138,1.67,5.96,1111122 
SCCF RECON,ioos:station:SCCF:18:1,2014-04-08T19:00:00Z,26.6955,-81.8138,1.74,5.98,1111122 
SCCF RECON,ioos:station:SCCF:18:1,2014-04-08T20:00:00Z,26.6955,-81.8138,1.8,6.01,1111122 
SCCF RECON,ioos:station:SCCF:18:1,2014-04-08T21:00:00Z,26.6955,-81.8138,1.85,6.0,1111122 
SCCF RECON,ioos:station:SCCF:18:1,2014-04-08T22:00:00Z,26.6955,-81.8138,1.87,5.91,1111122 
SCCF RECON,ioos:station:SCCF:18:1,2014-04-08T23:00:00Z,26.6955,-81.8138,1.86,5.62,1111122 
SCCF RECON,ioos:station:SCCF:18:1,2014-04-09T00:00:00Z,26.6955,-81.8138,1.84,5.61,1111122 
SCCF RECON,ioos:station:SCCF:18:1,2014-04-09T01:00:00Z,26.6955,-81.8138,1.83,5.52,1111122 
SCCF RECON,ioos:station:SCCF:18:1,2014-04-09T02:00:00Z,26.6955,-81.8138,1.82,5.42,1111122 
SCCF RECON,ioos:station:SCCF:18:1,2014-04-09T03:00:00Z,26.6955,-81.8138,1.79,5.54,1111122 
SCCF RECON,ioos:station:SCCF:18:1,2014-04-09T04:00:00Z,26.6955,-81.8138,1.76,5.25,1111122 
SCCF RECON,ioos:station:SCCF:18:1,2014-04-09T05:00:00Z,26.6955,-81.8138,1.73,5.02,1111122 
SCCF RECON,ioos:station:SCCF:18:1,2014-04-09T06:00:00Z,26.6955,-81.8138,1.74,5.39,1111122 
SCCF RECON,ioos:station:SCCF:18:1,2014-04-09T07:00:00Z,26.6955,-81.8138,1.74,5.46,1111122 
SCCF RECON,ioos:station:SCCF:18:1,2014-04-09T08:00:00Z,26.6955,-81.8138,1.72,5.47,1111122 
SCCF RECON,ioos:station:SCCF:18:1,2014-04-09T09:00:00Z,26.6955,-81.8138,1.69,5.39,1111122 
SCCF RECON,ioos:station:SCCF:18:1,2014-04-09T10:00:00Z,26.6955,-81.8138,1.65,5.41,1111122 
SCCF RECON,ioos:station:SCCF:18:1,2014-04-09T11:00:00Z,26.6955,-81.8138,1.61,5.38,1111122 
SCCF RECON,ioos:station:SCCF:18:1,2014-04-09T12:00:00Z,26.6955,-81.8138,1.57,5.43,1111122 
SCCF RECON,ioos:station:SCCF:18:1,2014-04-09T13:00:00Z,26.6955,-81.8138,1.55,5.56,1111122 
SCCF RECON,ioos:station:SCCF:18:1,2014-04-09T14:00:00Z,26.6955,-81.8138,1.53,5.5,1111122 
SCCF RECON,ioos:station:SCCF:18:1,2014-04-09T15:00:00Z,26.6955,-81.8138,1.51,5.34,1111122 
SCCF RECON,ioos:station:SCCF:18:1,2014-04-09T16:00:00Z,26.6955,-81.8138,1.52,5.6,1111122 
SCCF RECON,ioos:station:SCCF:18:1,2014-04-09T17:00:00Z,26.6955,-81.8138,1.54,5.64,1111122 
SCCF RECON,ioos:station:SCCF:18:1,2014-04-09T18:00:00Z,26.6955,-81.8138,1.55,5.94,1111122 
SCCF RECON,ioos:station:SCCF:18:1,2014-04-09T19:00:00Z,26.6955,-81.8138,1.539,6.02,1111122 
SCCF RECON,ioos:station:SCCF:18:1,2014-04-09T20:00:00Z,26.6955,-81.8138,1.52,6.07,1111122 
SCCF RECON,ioos:station:SCCF:18:1,2014-04-09T21:00:00Z,26.6955,-81.8138,1.5,6.05,1111122 
SCCF RECON,ioos:station:SCCF:18:1,2014-04-09T22:00:00Z,26.6955,-81.8138,1.49,6.22,1111122 
SCCF RECON,ioos:station:SCCF:18:1,2014-04-09T23:00:00Z,26.6955,-81.8138,1.47,6.23,1111122 
SCCF RECON,ioos:station:SCCF:18:1,2014-04-10T00:00:00Z,26.6955,-81.8138,1.43,6.08,1111122 
SCCF RECON,ioos:station:SCCF:18:1,2014-04-10T01:00:00Z,26.6955,-81.8138,1.4,6.15,1111122 
SCCF RECON,ioos:station:SCCF:18:1,2014-04-10T02:00:00Z,26.6955,-81.8138,1.38,6.03,1111122 
SCCF RECON,ioos:station:SCCF:18:1,2014-04-10T03:00:00Z,26.6955,-81.8138,1.37,5.95,1111122 
SCCF RECON,ioos:station:SCCF:18:1,2014-04-10T04:00:00Z,26.6955,-81.8138,1.37,5.79,1111122 
SCCF RECON,ioos:station:SCCF:18:1,2014-04-10T05:00:00Z,26.6955,-81.8138,1.38,5.78,1111122 
SCCF RECON,ioos:station:SCCF:18:1,2014-04-10T06:00:00Z,26.6955,-81.8138,1.4,5.82,1111122 
SCCF RECON,ioos:station:SCCF:18:1,2014-04-10T07:00:00Z,26.6955,-81.8138,1.41,5.86,1111122 
SCCF RECON,ioos:station:SCCF:18:1,2014-04-10T08:00:00Z,26.6955,-81.8138,1.4,5.96,1111122 
SCCF RECON,ioos:station:SCCF:18:1,2014-04-10T09:00:00Z,26.6955,-81.8138,1.4,5.97,1111122 
SCCF RECON,ioos:station:SCCF:18:1,2014-04-10T10:00:00Z,26.6955,-81.8138,1.36,5.8,1111122 
SCCF RECON,ioos:station:SCCF:18:1,2014-04-10T11:00:00Z,26.6955,-81.8138,1.33,5.68,1111122 
SCCF RECON,ioos:station:SCCF:18:1,2014-04-10T12:00:00Z,26.6955,-81.8138,1.32,5.71,1111122 
SCCF RECON,ioos:station:SCCF:18:1,2014-04-10T13:00:00Z,26.6955,-81.8138,1.31,5.81,1111122 
SCCF RECON,ioos:station:SCCF:18:1,2014-04-10T14:00:00Z,26.6955,-81.8138,1.29,5.9,1111122 
SCCF RECON,ioos:station:SCCF:18:1,2014-04-10T15:00:00Z,26.6955,-81.8138,1.28,5.88,1111122 
SCCF RECON,ioos:station:SCCF:18:1,2014-04-10T16:00:00Z,26.6955,-81.8138,1.31,6.27,1111122 
SCCF RECON,ioos:station:SCCF:18:1,2014-04-10T17:00:00Z,26.6955,-81.8138,1.35,6.46,1111122 
SCCF RECON,ioos:station:SCCF:18:1,2014-04-10T18:00:00Z,26.6955,-81.8138,1.36,6.25,1111122 
SCCF RECON,ioos:station:SCCF:18:1,2014-04-10T19:00:00Z,26.6955,-81.8138,1.42,6.74,1111122 
SCCF RECON,ioos:station:SCCF:18:1,2014-04-10T20:00:00Z,26.6955,-81.8138,1.46,6.82,1111122 
SCCF RECON,ioos:station:SCCF:18:1,2014-04-10T21:00:00Z,26.6955,-81.8138,1.47,7.23,1111122 
SCCF RECON,ioos:station:SCCF:18:1,2014-04-10T22:00:00Z,26.6955,-81.8138,1.46,6.98,1111122 
SCCF RECON,ioos:station:SCCF:18:1,2014-04-10T23:00:00Z,26.6955,-81.8138,1.44,6.89,1111122 
SCCF RECON,ioos:station:SCCF:18:1,2014-04-11T00:00:00Z,26.6955,-81.8138,1.41,6.78,1111122 
SCCF RECON,ioos:station:SCCF:18:1,2014-04-11T01:00:00Z,26.6955,-81.8138,1.37,6.56,1111122 
SCCF RECON,ioos:station:SCCF:18:1,2014-04-11T02:00:00Z,26.6955,-81.8138,1.34,6.57,1111122 
SCCF RECON,ioos:station:SCCF:18:1,2014-04-11T03:00:00Z,26.6955,-81.8138,1.34,6.44,1111122 
SCCF RECON,ioos:station:SCCF:18:1,2014-04-11T04:00:00Z,26.6955,-81.8138,1.35,6.44,1111122 
SCCF RECON,ioos:station:SCCF:18:1,2014-04-11T05:00:00Z,26.6955,-81.8138,1.4,6.25,1111122 
SCCF RECON,ioos:station:SCCF:18:1,2014-04-11T06:00:00Z,26.6955,-81.8138,1.43,6.15,1111122 
SCCF RECON,ioos:station:SCCF:18:1,2014-04-11T07:00:00Z,26.6955,-81.8138,1.44,6.21,1111122 
SCCF RECON,ioos:station:SCCF:18:1,2014-04-11T08:00:00Z,26.6955,-81.8138,1.46,6.27,1111122 
SCCF RECON,ioos:station:SCCF:18:1,2014-04-11T09:00:00Z,26.6955,-81.8138,1.48,6.09,1111122 
SCCF RECON,ioos:station:SCCF:18:1,2014-04-11T10:00:00Z,26.6955,-81.8138,1.48,6.04,1111122 
SCCF RECON,ioos:station:SCCF:18:1,2014-04-11T11:00:00Z,26.6955,-81.8138,1.46,6.02,1111122 
SCCF RECON,ioos:station:SCCF:18:1,2014-04-11T12:00:00Z,26.6955,-81.8138,1.43,5.96,1111122 
SCCF RECON,ioos:station:SCCF:18:1,2014-04-11T13:00:00Z,26.6955,-81.8138,1.39,5.95,1111122 
SCCF RECON,ioos:station:SCCF:18:1,2014-04-11T14:00:00Z,26.6955,-81.8138,1.38,6.08,1111122 
SCCF RECON,ioos:station:SCCF:18:1,2014-04-11T15:00:00Z,26.6955,-81.8138,1.38,6.08,1111122 
SCCF RECON,ioos:station:SCCF:18:1,2014-04-11T16:00:00Z,26.6955,-81.8138,1.43,6.5,1111122 
SCCF RECON,ioos:station:SCCF:18:1,2014-04-11T17:00:00Z,26.6955,-81.8138,1.469,6.45,1111122 
SCCF RECON,ioos:station:SCCF:18:1,2014-04-11T18:00:00Z,26.6955,-81.8138,1.474,6.57,1111122 
SCCF RECON,ioos:station:SCCF:18:1,2014-04-11T19:00:00Z,26.6955,-81.8138,1.539,6.89,1111122 
SCCF RECON,ioos:station:SCCF:18:1,2014-04-11T20:00:00Z,26.6955,-81.8138,1.581,7.19,1111122 
SCCF RECON,ioos:station:SCCF:18:1,2014-04-11T21:00:00Z,26.6955,-81.8138,1.6,8.2,1111122 